STARLINK-30263 (57642 NORAD) Tracking and Keplerian Element Data

This shows tracking and keplerian element data for the satellite.

Feedback or suggestion? Click here.




ElementValue
Catalog57642
NameSTARLINK-30263
Epoch Orbit2384
Epoch Day13.13332481
Epoch Year2024
RAAN48.5296
Inclination43.003
Eccentricity8.21E-05
Argument of Perigee253.206
Mean Anonmoly106.8692
Mean Motion15.02530361
Decay Rate3.178E-05
L11 57642U 23122L 24013.13332481 .00003178 00000+0 25025-3 0 9994
L22 57642 43.0030 48.5296 0000821 253.2060 106.8692 15.02530361 23844



Live tracking and technical data element details for STARLINK-30263 (NORAD 57642). STARLINK-30263 can be tracked NOW for your location showing map with azimuth and elevation plus other details from your city location.







IsCatalogInMostPopularTable: catalog: 57642, numindb: 30
Update: records affected: 1



GetName: 57642 STARLINK-30263

Hit Count: updated at: Thu, 29 Feb 2024 11:02:41 GMT